East Taunton, MA

1:54 PM EST on December 10, 2016 (GMT -0500)
Taunton Municipal

Weather History for KTAN - February, 2013

Change the Weather History Date:

Tuesday, February 12, 2013

  Actual Average Record
Temperature  
Mean Temperature 38 °F -  
Max Temperature 45 °F 38 °F 61 °F (1999)
Min Temperature 28 °F 15 °F -13 °F (1979)
Degree Days  
Heating Degree Days 28    
Moisture  
Dew Point 29 °F    
Average Humidity 66    
Maximum Humidity 93    
Minimum Humidity 43    
Precipitation  
Precipitation 0.00 in - - ()
Sea Level Pressure  
Sea Level Pressure 29.72 in    
Wind  
Wind Speed 7 mph (West)    
Max Wind Speed 17 mph    
Max Gust Speed 31 mph    
Visibility 9 miles    
Events      
Averages and records for this station are not official NWS values.
T = Trace of Precipitation, MM = Missing Value Source: NWS Daily Summary

Daily Weather History Graph

Daily Weather History Graph

Search for Another Location

Airport or City:

Trip Planner

Search our weather history database for the weather conditions in past years. The results will help you decide how hot, cold, wet, or windy it might be!

Date:

Astronomy

Feb. 12, 2013 Rise Set
Actual Time 6:43 AM EST 5:13 PM EST
Civil Twilight 6:14 AM EST 5:42 PM EST
Nautical Twilight 5:42 AM EST 6:15 PM EST
Astronomical Twilight 5:09 AM EST 6:47 PM EST
Moon 7:35 AM EST (2/12) 8:15 PM EST (2/12)
Length of Visible Light 11h 27m
Length of Day
10h 30m
Waxing Crescent, 7% of the Moon is Illuminated
Feb 12
Waxing Crescent
Feb 17
First Quarter
Feb 25
Full
Mar 4
Last Quarter
Mar 11
New

Hourly Weather History & Observations

Time (EST) Temp. Windchill Dew Point Humidity Pressure Visibility Wind Dir Wind Speed Gust Speed Precip Events Conditions
12:10 AM 44.1 °F 40.8 °F 41.0 °F 89% 29.62 in 9.0 mi West 5.8 mph - N/A   Overcast
12:20 AM 43.0 °F 40.3 °F 41.0 °F 93% 29.62 in 9.0 mi West 4.6 mph - N/A   Overcast
12:52 AM 43.0 °F 39.5 °F 39.9 °F 89% 29.62 in 10.0 mi West 5.8 mph - N/A   Overcast
1:24 AM 42.1 °F 39.2 °F 39.0 °F 89% 29.62 in 10.0 mi WNW 4.6 mph - N/A   Scattered Clouds
1:52 AM 41.0 °F - 37.0 °F 86% 29.62 in 10.0 mi Calm Calm - N/A   Clear
2:18 AM 36.0 °F 33.3 °F 34.0 °F 93% 29.62 in 1.8 mi West 3.5 mph - N/A   Clear
2:25 AM 39.0 °F 34.0 °F 35.1 °F 86% 29.62 in 3.0 mi West 6.9 mph - N/A   Clear
2:52 AM 39.0 °F 34.8 °F 34.0 °F 82% 29.63 in 10.0 mi West 5.8 mph - N/A   Clear
3:52 AM 39.0 °F 32.8 °F 30.0 °F 70% 29.65 in 10.0 mi WNW 9.2 mph - N/A   Clear
4:52 AM 37.0 °F 33.3 °F 28.0 °F 70% 29.66 in 10.0 mi West 4.6 mph - N/A   Clear
5:52 AM 37.9 °F 32.7 °F 26.1 °F 62% 29.67 in 10.0 mi West 6.9 mph - N/A   Clear
6:52 AM 36.0 °F 32.1 °F 27.0 °F 70% 29.68 in 10.0 mi WSW 4.6 mph - N/A   Clear
7:52 AM 37.0 °F 32.4 °F 28.0 °F 70% 29.71 in 10.0 mi WSW 5.8 mph - N/A   Partly Cloudy
8:52 AM 39.9 °F 35.1 °F 28.0 °F 63% 29.71 in 10.0 mi SW 6.9 mph - N/A   Overcast
9:52 AM 43.0 °F 37.2 °F 27.0 °F 53% 29.72 in 10.0 mi West 10.4 mph 19.6 mph N/A   Mostly Cloudy
10:52 AM 45.0 °F 39.7 °F 25.0 °F 46% 29.73 in 10.0 mi West 10.4 mph - N/A   Mostly Cloudy
11:52 AM 44.1 °F 36.5 °F 24.1 °F 45% 29.73 in 10.0 mi WNW 17.3 mph 25.3 mph N/A   Overcast
12:52 PM 44.1 °F 36.8 °F 23.0 °F 43% 29.73 in 10.0 mi WNW 16.1 mph 31.1 mph N/A   Mostly Cloudy
1:52 PM 45.0 °F 37.9 °F 24.1 °F 44% 29.75 in 10.0 mi West 16.1 mph 21.9 mph N/A   Mostly Cloudy
2:52 PM 45.0 °F 38.2 °F 25.0 °F 46% 29.76 in 10.0 mi WNW 15.0 mph 21.9 mph N/A   Partly Cloudy
3:52 PM 44.1 °F 38.6 °F 25.0 °F 47% 29.77 in 10.0 mi West 10.4 mph - N/A   Mostly Cloudy
4:52 PM 43.0 °F 36.4 °F 24.1 °F 47% 29.76 in 10.0 mi WNW 12.7 mph 19.6 mph N/A   Scattered Clouds
5:52 PM 41.0 °F 33.5 °F 24.1 °F 51% 29.78 in 10.0 mi West 13.8 mph 23.0 mph N/A   Clear
6:52 PM 39.9 °F 33.4 °F 25.0 °F 55% 29.81 in 10.0 mi West 10.4 mph - N/A   Overcast
7:52 PM 39.9 °F 33.4 °F 24.1 °F 53% 29.89 in 10.0 mi West 10.4 mph - N/A   Overcast
8:52 PM 39.0 °F 34.0 °F 24.1 °F 55% 29.89 in 10.0 mi WNW 6.9 mph 19.6 mph N/A   Overcast
9:52 PM 37.0 °F 32.4 °F 23.0 °F 57% 29.86 in 10.0 mi West 5.8 mph - N/A   Clear
10:52 PM 30.9 °F - 23.0 °F 72% 29.83 in 10.0 mi Calm Calm - N/A   Clear
11:52 PM 28.0 °F 24.2 °F 23.0 °F 81% 29.85 in 10.0 mi WSW 3.5 mph - N/A   Clear